FLOCK 4V-6 (46289 NORAD) Tracking and Keplerian Element Data

This shows tracking and keplerian element data for the satellite.

Feedback or suggestion? Click here.




ElementValue
Catalog46289
NameFLOCK 4V-6
Epoch Orbit2202
Epoch Day27.18816081
Epoch Year2021
RAAN103.4859
Inclination97.5041
Eccentricity0.00024
Argument of Perigee180.7876
Mean Anonmoly179.335
Mean Motion15.10285953
Decay Rate1.716E-05
L11 46289U 20061T 21027.18816081 .00001716 00000-0 10864-3 0 9990
L22 46289 97.5041 103.4859 0002400 180.7876 179.3350 15.10285953 22023

Live tracking and technical data element details for FLOCK 4V-6 (NORAD 46289). FLOCK 4V-6 can be tracked NOW for your location showing map with azimuth and elevation plus other details from your city location.

Track the satellite on the map from your city or location and see movement details for azimuth, elevation, latitude, longitude, range, height, and movement on the map or in text.







IsCatalogInMostPopularTable: catalog: 46289, numindb: 46
Update: records affected: 1



GetName: 46289 FLOCK 4V-6

Hit Count: updated at: Thu, 28 Jan 2021 11:51:05 GMT